| time (UTC) | temp F | wind direction | speed knots | gust knots | rain 1hr in | rain 24hr in | rain mn in | humidity % | barometer mb |
| 20260504192204 | 57 | 130 | 0.9 | 1.7 | 0.00 | 0.00 | 0.00 | 69 | 1009.8 |
| 20260504192113 | 57 | 131 | 0.9 | 1.7 | 0.00 | 0.00 | 0.00 | 68 | 1009.7 |
| 20260504192004 | 57 | 134 | 0.9 | 1.7 | 0.00 | 0.00 | 0.00 | 67 | 1009.7 |
| 20260504190404 | 58 | 334 | 0.9 | 5.2 | 0.00 | 0.00 | 0.00 | 64 | 1010.4 |
| 20260504190203 | 58 | 310 | 0.9 | 5.2 | 0.00 | 0.00 | 0.00 | 63 | 1010.5 |
| 20260504190104 | 59 | 255 | 1.7 | 5.2 | 0.00 | 0.00 | 0.00 | 63 | 1010.4 |
| 20260504190004 | 59 | 204 | 1.7 | 5.2 | 0.00 | 0.00 | 0.00 | 64 | 1010.5 |
| 20260504185904 | 59 | 185 | 1.7 | 5.2 | 0.00 | 0.00 | 0.00 | 63 | 1010.5 |
| 20260504185804 | 59 | 176 | 0.9 | 3.5 | 0.00 | 0.00 | 0.00 | 63 | 1010.1 |
| 20260504185703 | 59 | 171 | 0.9 | 2.6 | 0.00 | 0.00 | 0.00 | 63 | 1010.3 |
| 20260504185603 | 59 | 169 | 1.7 | 2.6 | 0.00 | 0.00 | 0.00 | 63 | 1010.3 |
| 20260504185503 | 59 | 168 | 0.9 | 2.6 | 0.00 | 0.00 | 0.00 | 61 | 1010.3 |
| 20260504185419 | 59 | 168 | 1.7 | 2.6 | 0.00 | 0.00 | 0.00 | 61 | 1010.4 |
| 20260504185403 | 59 | 170 | 1.7 | 2.6 | 0.00 | 0.00 | 0.00 | 61 | 1010.4 |
| 20260504185304 | 59 | 172 | 0.9 | 2.6 | 0.00 | 0.00 | 0.00 | 60 | 1010.2 |
| 20260504185119 | 59 | 173 | 0.9 | 2.6 | 0.00 | 0.00 | 0.00 | 60 | 1010.1 |
| 20260504185103 | 59 | 174 | 0.9 | 2.6 | 0.00 | 0.00 | 0.00 | 60 | 1010.1 |
| 20260504185005 | 59 | 176 | 0.9 | 2.6 | 0.00 | 0.00 | 0.00 | 60 | 1010.2 |
| 20260504184819 | 60 | 179 | 0.9 | 2.6 | 0.00 | 0.00 | 0.00 | 59 | 1010.3 |
| 20260504184805 | 60 | 178 | 0.9 | 2.6 | 0.00 | 0.00 | 0.00 | 59 | 1010.3 |
| 20260504184704 | 60 | 180 | 0.9 | 2.6 | 0.00 | 0.00 | 0.00 | 59 | 1010.2 |
| 20260504184620 | 60 | 180 | 0.9 | 2.6 | 0.00 | 0.00 | 0.00 | 59 | 1010.2 |
| 20260504184505 | 60 | 182 | 0.9 | 2.6 | 0.00 | 0.00 | 0.00 | 59 | 1010.1 |
| 20260504184303 | 60 | 181 | 0.9 | 3.5 | 0.00 | 0.00 | 0.00 | 59 | 1010.2 |
| 20260504184205 | 60 | 182 | 1.7 | 3.5 | 0.00 | 0.00 | 0.00 | 59 | 1010.2 |
| 20260504184103 | 60 | 181 | 1.7 | 3.5 | 0.00 | 0.00 | 0.00 | 59 | 1010.1 |
| 20260504184004 | 60 | 179 | 1.7 | 3.5 | 0.00 | 0.00 | 0.00 | 58 | 1010.2 |
| 20260504183903 | 60 | 179 | 1.7 | 3.5 | 0.00 | 0.00 | 0.00 | 59 | 1010.1 |
| 20260504183804 | 60 | 180 | 1.7 | 3.5 | 0.00 | 0.00 | 0.00 | 58 | 1010.2 |
| 20260504183604 | 61 | 180 | 1.7 | 3.5 | 0.00 | 0.00 | 0.00 | 58 | 1010.2 |
| 20260504183504 | 61 | 181 | 1.7 | 3.5 | 0.00 | 0.00 | 0.00 | 57 | 1010.3 |
| 20260504183404 | 61 | 181 | 0.9 | 3.5 | 0.00 | 0.00 | 0.00 | 57 | 1010.2 |
| 20260504183216 | 61 | 180 | 0.9 | 2.6 | 0.00 | 0.00 | 0.00 | 57 | 1010.2 |
| 20260504183204 | 61 | 181 | 0.9 | 2.6 | 0.00 | 0.00 | 0.00 | 57 | 1010.2 |
| 20260504183103 | 61 | 185 | 0.9 | 2.6 | 0.00 | 0.00 | 0.00 | 57 | 1010.4 |
| 20260504182904 | 61 | 189 | 0.9 | 1.7 | 0.00 | 0.00 | 0.00 | 57 | 1010.1 |
| 20260504182803 | 61 | 192 | 0.9 | 1.7 | 0.00 | 0.00 | 0.00 | 57 | 1010.1 |
| 20260504182705 | 62 | 198 | 0.9 | 1.7 | 0.00 | 0.00 | 0.00 | 57 | 1010.3 |
| 20260504182620 | 62 | 200 | 0.9 | 1.7 | 0.00 | 0.00 | 0.00 | 57 | 1010.0 |
| 20260504182603 | 62 | 202 | 0.0 | 1.7 | 0.00 | 0.00 | 0.00 | 57 | 1010.0 |
| 20260504182505 | 62 | 202 | 0.0 | 1.7 | 0.00 | 0.00 | 0.00 | 56 | 1010.1 |
| 20260504182417 | 62 | 210 | 0.0 | 1.7 | 0.00 | 0.00 | 0.00 | 55 | 1010.3 |
| 20260504182304 | 62 | 221 | 0.0 | 0.9 | 0.00 | 0.00 | 0.00 | 57 | 1010.1 |
| 20260504182103 | 62 | 221 | 0.0 | 0.9 | 0.00 | 0.00 | 0.00 | 57 | 1010.2 |
| 20260504182003 | 62 | 0 | 0.0 | 0.9 | 0.00 | 0.00 | 0.00 | 56 | 1010.0 |
| 20260504181903 | 63 | 0 | 0.0 | 0.9 | 0.00 | 0.00 | 0.00 | 57 | 1010.0 |
| 20260504181803 | 63 | 0 | 0.0 | 0.9 | 0.00 | 0.00 | 0.00 | 57 | 1010.2 |
| 20260504181705 | 63 | 0 | 0.0 | 0.9 | 0.00 | 0.00 | 0.00 | 57 | 1010.1 |
| 20260504181604 | 63 | 0 | 0.0 | 0.9 | 0.00 | 0.00 | 0.00 | 56 | 1010.1 |
| 20260504181503 | 63 | 0 | 0.0 | 0.9 | 0.00 | 0.00 | 0.00 | 56 | 1010.2 |
| 20260504181403 | 64 | 221 | 0.0 | 0.9 | 0.00 | 0.00 | 0.00 | 56 | 1010.0 |
| 20260504181204 | 64 | 221 | 0.0 | 0.9 | 0.00 | 0.00 | 0.00 | 54 | 1009.9 |
| 20260504181119 | 64 | 221 | 0.0 | 0.9 | 0.00 | 0.00 | 0.00 | 54 | 1010.1 |
| 20260504181105 | 64 | 221 | 0.0 | 0.9 | 0.00 | 0.00 | 0.00 | 53 | 1010.1 |
| 20260504181004 | 64 | 221 | 0.0 | 0.9 | 0.00 | 0.00 | 0.00 | 53 | 1009.9 |
| 20260504180704 | 65 | 222 | 0.0 | 0.9 | 0.00 | 0.00 | 0.00 | 53 | 1010.0 |
| 20260504180603 | 65 | 222 | 0.0 | 0.9 | 0.00 | 0.00 | 0.00 | 53 | 1009.8 |
| 20260504180505 | 65 | 222 | 0.0 | 0.9 | 0.00 | 0.00 | 0.00 | 54 | 1010.1 |
| 20260504180404 | 65 | 222 | 0.0 | 0.9 | 0.00 | 0.00 | 0.00 | 53 | 1009.8 |
| 20260504180304 | 66 | 221 | 0.0 | 0.9 | 0.00 | 0.00 | 0.00 | 54 | 1009.8 |
| 20260504180206 | 66 | 221 | 0.0 | 1.7 | 0.00 | 0.00 | 0.00 | 52 | 1010.1 |
| 20260504180103 | 66 | 221 | 0.0 | 1.7 | 0.00 | 0.00 | 0.00 | 51 | 1009.9 |
| 20260504180004 | 66 | 221 | 0.0 | 1.7 | 0.00 | 0.00 | 0.00 | 50 | 1010.0 |
| 20260504175803 | 67 | 218 | 0.9 | 2.6 | 0.00 | 0.00 | 0.00 | 49 | 1009.8 |
| 20260504175704 | 67 | 219 | 0.9 | 2.6 | 0.00 | 0.00 | 0.00 | 49 | 1009.8 |
| 20260504175603 | 67 | 218 | 0.9 | 2.6 | 0.00 | 0.00 | 0.00 | 50 | 1009.9 |
| 20260504175505 | 68 | 218 | 0.9 | 2.6 | 0.00 | 0.00 | 0.00 | 48 | 1009.8 |
| 20260504175404 | 68 | 216 | 0.9 | 2.6 | 0.00 | 0.00 | 0.00 | 48 | 1009.8 |
| 20260504175304 | 68 | 213 | 0.9 | 2.6 | 0.00 | 0.00 | 0.00 | 48 | 1009.7 |
| 20260504175204 | 68 | 213 | 0.9 | 2.6 | 0.00 | 0.00 | 0.00 | 46 | 1009.8 |
| 20260504175103 | 68 | 212 | 0.9 | 2.6 | 0.00 | 0.00 | 0.00 | 47 | 1009.7 |
| 20260504175017 | 69 | 213 | 0.9 | 2.6 | 0.00 | 0.00 | 0.00 | 45 | 1009.7 |
| 20260504175003 | 69 | 214 | 0.9 | 2.6 | 0.00 | 0.00 | 0.00 | 45 | 1009.7 |
| 20260504174903 | 69 | 217 | 0.9 | 2.6 | 0.00 | 0.00 | 0.00 | 45 | 1009.7 |
| 20260504174704 | 69 | 218 | 0.9 | 2.6 | 0.00 | 0.00 | 0.00 | 43 | 1009.6 |
| 20260504174619 | 70 | 217 | 0.9 | 2.6 | 0.00 | 0.00 | 0.00 | 45 | 1009.7 |
| 20260504174603 | 70 | 216 | 0.9 | 2.6 | 0.00 | 0.00 | 0.00 | 45 | 1009.7 |
| 20260504174504 | 70 | 220 | 0.9 | 2.6 | 0.00 | 0.00 | 0.00 | 42 | 1009.6 |
| 20260504174319 | 70 | 233 | 0.9 | 5.2 | 0.00 | 0.00 | 0.00 | 44 | 1009.6 |
| 20260504174303 | 70 | 236 | 0.9 | 5.2 | 0.00 | 0.00 | 0.00 | 44 | 1009.6 |
| 20260504174204 | 71 | 235 | 0.9 | 5.2 | 0.00 | 0.00 | 0.00 | 44 | 1009.5 |
| 20260504174004 | 71 | 236 | 0.9 | 5.2 | 0.00 | 0.00 | 0.00 | 42 | 1009.7 |
| 20260504173903 | 71 | 236 | 0.9 | 5.2 | 0.00 | 0.00 | 0.00 | 42 | 1009.7 |
| 20260504173803 | 71 | 233 | 0.9 | 5.2 | 0.00 | 0.00 | 0.00 | 42 | 1009.6 |
| 20260504173705 | 71 | 232 | 1.7 | 5.2 | 0.00 | 0.00 | 0.00 | 43 | 1009.6 |
| 20260504173603 | 72 | 235 | 1.7 | 5.2 | 0.00 | 0.00 | 0.00 | 41 | 1009.7 |
| 20260504173504 | 72 | 234 | 1.7 | 5.2 | 0.00 | 0.00 | 0.00 | 42 | 1009.6 |
| 20260504173419 | 72 | 232 | 1.7 | 5.2 | 0.00 | 0.00 | 0.00 | 38 | 1009.7 |
| 20260504173403 | 72 | 231 | 1.7 | 5.2 | 0.00 | 0.00 | 0.00 | 38 | 1009.7 |
| 20260504173103 | 73 | 228 | 1.7 | 5.2 | 0.00 | 0.00 | 0.00 | 39 | 1009.6 |
| 20260504173003 | 73 | 227 | 1.7 | 5.2 | 0.00 | 0.00 | 0.00 | 37 | 1009.4 |
| 20260504172822 | 73 | 227 | 1.7 | 7.0 | 0.00 | 0.00 | 0.00 | 38 | 1009.5 |
| 20260504172804 | 73 | 228 | 1.7 | 7.0 | 0.00 | 0.00 | 0.00 | 38 | 1009.5 |
| 20260504172704 | 73 | 228 | 1.7 | 7.0 | 0.00 | 0.00 | 0.00 | 36 | 1009.3 |
| 20260504172518 | 74 | 228 | 1.7 | 7.0 | 0.00 | 0.00 | 0.00 | 36 | 1009.4 |
| 20260504172503 | 74 | 229 | 1.7 | 7.0 | 0.00 | 0.00 | 0.00 | 36 | 1009.4 |
| 20260504172404 | 74 | 231 | 1.7 | 7.0 | 0.00 | 0.00 | 0.00 | 35 | 1009.6 |
| 20260504172204 | 74 | 232 | 2.6 | 7.0 | 0.00 | 0.00 | 0.00 | 35 | 1009.5 |
| 20260504172109 | 74 | 233 | 2.6 | 7.0 | 0.00 | 0.00 | 0.00 | 35 | 1009.5 |
| 20260504172004 | 74 | 236 | 2.6 | 7.0 | 0.00 | 0.00 | 0.00 | 36 | 1009.5 |
| 20260504171905 | 74 | 239 | 2.6 | 7.0 | 0.00 | 0.00 | 0.00 | 34 | 1009.4 |
| 20260504171803 | 74 | 239 | 2.6 | 7.0 | 0.00 | 0.00 | 0.00 | 35 | 1009.4 |
| 20260504171704 | 75 | 244 | 2.6 | 8.7 | 0.00 | 0.00 | 0.00 | 34 | 1009.4 |
| 20260504171604 | 75 | 244 | 2.6 | 8.7 | 0.00 | 0.00 | 0.00 | 33 | 1009.4 |
| 20260504171503 | 75 | 246 | 2.6 | 8.7 | 0.00 | 0.00 | 0.00 | 34 | 1009.4 |
| 20260504171403 | 75 | 247 | 2.6 | 8.7 | 0.00 | 0.00 | 0.00 | 35 | 1009.3 |
| 20260504171303 | 75 | 250 | 2.6 | 8.7 | 0.00 | 0.00 | 0.00 | 32 | 1009.4 |
| 20260504171215 | 75 | 250 | 2.6 | 8.7 | 0.00 | 0.00 | 0.00 | 34 | 1009.5 |
| 20260504171103 | 75 | 245 | 2.6 | 8.7 | 0.00 | 0.00 | 0.00 | 33 | 1009.5 |
| 20260504170919 | 75 | 243 | 2.6 | 8.7 | 0.00 | 0.00 | 0.00 | 34 | 1009.5 |
| 20260504170903 | 75 | 242 | 2.6 | 8.7 | 0.00 | 0.00 | 0.00 | 33 | 1009.5 |
| 20260504170804 | 75 | 243 | 2.6 | 8.7 | 0.00 | 0.00 | 0.00 | 33 | 1009.5 |
| 20260504170605 | 76 | 243 | 2.6 | 8.7 | 0.00 | 0.00 | 0.00 | 33 | 1009.3 |
| 20260504170504 | 76 | 237 | 1.7 | 6.1 | 0.00 | 0.00 | 0.00 | 33 | 1009.3 |
| 20260504170403 | 76 | 235 | 2.6 | 6.1 | 0.00 | 0.00 | 0.00 | 33 | 1009.3 |
| 20260504170304 | 76 | 236 | 1.7 | 6.1 | 0.00 | 0.00 | 0.00 | 33 | 1009.3 |
| 20260504170203 | 76 | 238 | 1.7 | 6.1 | 0.00 | 0.00 | 0.00 | 32 | 1009.2 |
| 20260504160403 | 77 | 230 | 5.2 | 14.8 | 0.00 | 0.00 | 0.00 | 29 | 1009.3 |
| 20260504160304 | 77 | 227 | 5.2 | 14.8 | 0.00 | 0.00 | 0.00 | 29 | 1009.3 |
| 20260504160204 | 77 | 223 | 6.1 | 14.8 | 0.00 | 0.00 | 0.00 | 29 | 1009.4 |
| 20260504160103 | 77 | 228 | 6.1 | 14.8 | 0.00 | 0.00 | 0.00 | 29 | 1009.4 |
| 20260504141303 | 79 | 242 | 4.3 | 13.9 | 0.00 | 0.00 | 0.00 | 28 | 1009.9 |
| 20260504141218 | 79 | 244 | 4.3 | 13.9 | 0.00 | 0.00 | 0.00 | 28 | 1009.7 |
| 20260504141205 | 79 | 244 | 5.2 | 13.9 | 0.00 | 0.00 | 0.00 | 28 | 1009.7 |
| 20260504141104 | 79 | 244 | 5.2 | 13.9 | 0.00 | 0.00 | 0.00 | 28 | 1009.7 |
| 20260504141021 | 79 | 242 | 5.2 | 13.9 | 0.00 | 0.00 | 0.00 | 28 | 1009.9 |
| 20260504140903 | 79 | 243 | 6.1 | 13.9 | 0.00 | 0.00 | 0.00 | 28 | 1009.9 |
| 20260504140704 | 79 | 245 | 6.1 | 13.9 | 0.00 | 0.00 | 0.00 | 27 | 1009.9 |
| 20260504140605 | 79 | 246 | 5.2 | 13.9 | 0.00 | 0.00 | 0.00 | 28 | 1010.0 |
| 20260504140503 | 79 | 242 | 6.1 | 13.9 | 0.00 | 0.00 | 0.00 | 28 | 1009.9 |
| 20260504140403 | 79 | 242 | 6.1 | 13.9 | 0.00 | 0.00 | 0.00 | 27 | 1010.0 |
| 20260504140318 | 79 | 243 | 6.1 | 13.9 | 0.00 | 0.00 | 0.00 | 28 | 1010.0 |
| 20260504140305 | 79 | 242 | 5.2 | 12.2 | 0.00 | 0.00 | 0.00 | 28 | 1010.0 |
| 20260504140216 | 79 | 240 | 5.2 | 12.2 | 0.00 | 0.00 | 0.00 | 27 | 1009.9 |
| 20260504140205 | 79 | 240 | 5.2 | 12.2 | 0.00 | 0.00 | 0.00 | 27 | 1009.9 |